FW7817 Weather Reports


time (UTC)temp
C
wind
direction
speed
KPH
gust
KPH
rain 1hr
cm
rain 24hr
cm
rain mn
cm
humidity
%
barometer
mb
20260507165845 18 186 4.8 20.9 0.00 0.00 0.00 54 1016.0
20260507165343 18 250 3.2 20.9 0.00 0.00 0.00 55 1016.1
20260507164842 18 263 4.8 19.3 0.00 0.00 0.00 56 1016.1
20260507164343 18 246 6.4 25.7 0.00 0.00 0.00 55 1016.1
20260507163842 18 281 6.4 30.6 0.00 0.00 0.00 56 1016.1
20260507163342 18 252 8.0 30.6 0.00 0.00 0.00 54 1016.2
20260507162841 18 236 4.8 19.3 0.00 0.00 0.00 54 1016.3
20260507162341 18 224 3.2 17.7 0.00 0.00 0.00 56 1016.2
20260507161341 18 271 4.8 17.7 0.00 0.00 0.00 55 1016.6
20260507160841 17 284 4.8 17.7 0.00 0.00 0.00 56 1016.6
20260507160341 17 246 4.8 16.1 0.00 0.00 0.00 57 1016.6
20260507155843 17 195 4.8 25.7 0.00 0.00 0.00 56 1016.7
20260507155343 17 238 6.4 30.6 0.00 0.00 0.00 55 1016.7
20260507154842 17 281 6.4 30.6 0.00 0.00 0.00 56 1016.7
20260507154342 17 246 4.8 17.7 0.00 0.00 0.00 57 1016.9
20260507153842 17 245 4.8 17.7 0.00 0.00 0.00 56 1016.7
20260507153342 17 192 4.8 20.9 0.00 0.00 0.00 58 1016.7
20260507152842 17 257 4.8 20.9 0.00 0.00 0.00 59 1016.7
20260507151842 16 263 4.8 19.3 0.00 0.00 0.00 59 1016.9
20260507150842 16 277 4.8 20.9 0.00 0.00 0.00 60 1017.1
20260507150342 16 240 4.8 19.3 0.00 0.00 0.00 59 1017.2
20260507145841 16 237 4.8 19.3 0.00 0.00 0.00 60 1017.1
20260507145341 16 265 4.8 19.3 0.00 0.00 0.00 60 1017.3
20260507144841 16 260 4.8 19.3 0.00 0.00 0.00 62 1017.3
20260507143843 15 213 3.2 12.9 0.00 0.00 0.00 61 1017.4
20260507143340 15 227 3.2 14.5 0.00 0.00 0.00 63 1017.3
20260507141828 14 240 4.8 17.7 0.00 0.00 0.00 65 1017.4
20260507141321 14 238 4.8 24.1 0.00 0.00 0.00 64 1017.3
20260507140815 14 238 6.4 24.1 0.00 0.00 0.00 65 1017.4
20260507135808 13 235 4.8 16.1 0.00 0.00 0.00 68 1017.5
20260507135306 13 257 4.8 16.1 0.00 0.00 0.00 66 1017.4
20260507134806 13 227 4.8 12.9 0.00 0.00 0.00 68 1017.5
20260507134306 13 273 3.2 16.1 0.00 0.00 0.00 69 1017.4
20260507133306 12 238 3.2 12.9 0.00 0.00 0.00 72 1017.5
20260507132807 11 254 3.2 12.9 0.00 0.00 0.00 74 1017.6
20260507131805 10 252 3.2 11.3 0.00 0.00 0.00 78 1017.5
20260507131305 10 269 3.2 11.3 0.00 0.00 0.00 81 1017.6
20260507130805 9 233 1.6 6.4 0.00 0.00 0.00 83 1017.6
20260507130305 8 254 1.6 6.4 0.00 0.00 0.00 85 1017.6
20260507125805 8 244 0.0 3.2 0.00 0.00 0.00 85 1017.7
20260507125306 8 244 0.0 4.8 0.00 0.00 0.00 85 1017.7
20260507124801 7 244 1.6 4.8 0.00 0.00 0.00 85 1017.5
20260507124259 7 262 0.0 4.8 0.00 0.00 0.00 85 1017.6
20260507123758 7 226 0.0 1.6 0.00 0.00 0.00 84 1017.5
20260507123253 7 226 0.0 1.6 0.00 0.00 0.00 84 1017.6
20260507122747 7 237 0.0 1.6 0.00 0.00 0.00 84 1017.6
20260507122240 7 246 0.0 3.2 0.00 0.00 0.00 84 1017.6
20260507121735 7 247 0.0 4.8 0.00 0.00 0.00 84 1017.6
20260507121228 7 247 0.0 4.8 0.00 0.00 0.00 83 1017.7
20260507120723 7 243 0.0 0.0 0.00 0.00 0.00 83 1017.7
20260507120217 7 243 0.0 1.6 0.00 0.00 0.00 83 1017.7
20260507115711 7 243 0.0 3.2 0.00 0.00 0.00 83 1017.6
20260507115205 7 245 0.0 3.2 0.00 0.00 0.00 83 1017.6
20260507114658 7 246 0.0 4.8 0.00 0.00 0.00 83 1017.6
20260507114152 7 232 0.0 4.8 0.00 0.00 0.00 82 1017.6
20260507113647 7 252 0.0 4.8 0.00 0.00 0.00 82 1017.6
20260507113141 7 252 0.0 4.8 0.00 0.00 0.00 82 1017.6
20260507112129 7 250 0.0 3.2 0.00 0.00 0.00 82 1017.6
20260507111623 7 248 1.6 6.4 0.00 0.00 0.00 81 1017.6
20260507111117 7 248 1.6 6.4 0.00 0.00 0.00 81 1017.6
20260507110611 7 260 1.6 6.4 0.00 0.00 0.00 81 1017.6
20260507110106 7 251 0.0 3.2 0.00 0.00 0.00 81 1017.6
20260507105600 7 252 1.6 6.4 0.00 0.00 0.00 80 1017.6
20260507105053 7 250 1.6 6.4 0.00 0.00 0.00 80 1017.6
20260507104040 7 256 1.6 4.8 0.00 0.00 0.00 80 1017.7
20260507103536 7 248 1.6 4.8 0.00 0.00 0.00 80 1017.6
20260507103030 7 248 1.6 6.4 0.00 0.00 0.00 80 1017.7
20260507102523 8 247 1.6 9.7 0.00 0.00 0.00 79 1017.7
20260507102016 8 252 1.6 9.7 0.00 0.00 0.00 79 1017.7
20260507101511 8 259 1.6 6.4 0.00 0.00 0.00 79 1017.8
20260507101005 8 247 1.6 6.4 0.00 0.00 0.00 78 1017.8
20260507100458 8 252 1.6 6.4 0.00 0.00 0.00 78 1017.9
20260507095953 8 244 1.6 4.8 0.00 0.00 0.00 78 1017.8
20260507095447 8 243 1.6 4.8 0.00 0.00 0.00 78 1017.8
20260507094941 8 240 1.6 4.8 0.00 0.00 0.00 77 1017.9
20260507094435 8 234 1.6 4.8 0.00 0.00 0.00 77 1017.9
20260507093928 8 257 1.6 6.4 0.00 0.00 0.00 76 1017.9
20260507093423 8 252 1.6 6.4 0.00 0.00 0.00 76 1017.9
20260507092917 8 250 1.6 4.8 0.00 0.00 0.00 76 1017.9
20260507091905 8 257 1.6 9.7 0.00 0.00 0.00 75 1017.8
20260507091359 8 263 1.6 9.7 0.00 0.00 0.00 75 1018.1
20260507090852 8 234 0.0 4.8 0.00 0.00 0.00 75 1018.1
20260507085848 8 229 1.6 12.9 0.00 0.00 0.00 74 1018.2
20260507085344 8 256 1.6 12.9 0.00 0.00 0.00 74 1018.1
20260507084844 8 264 1.6 6.4 0.00 0.00 0.00 74 1018.1
20260507084346 9 263 1.6 16.1 0.00 0.00 0.00 74 1018.2
20260507082841 8 223 1.6 6.4 0.00 0.00 0.00 73 1018.3
20260507081340 8 240 1.6 11.3 0.00 0.00 0.00 73 1018.5
20260507080342 9 242 1.6 8.0 0.00 0.00 0.00 73 1018.4
20260507075841 9 261 3.2 8.0 0.00 0.00 0.00 72 1018.3
20260507075340 9 234 3.2 9.7 0.00 0.00 0.00 72 1018.4
20260507074841 9 229 3.2 9.7 0.00 0.00 0.00 72 1018.4
20260507074342 9 264 1.6 9.7 0.00 0.00 0.00 72 1018.4
20260507073341 9 221 1.6 4.8 0.00 0.00 0.00 71 1018.4
20260507072840 9 215 1.6 6.4 0.00 0.00 0.00 71 1018.4
20260507072341 9 252 1.6 6.4 0.00 0.00 0.00 71 1018.5
20260507071842 9 260 1.6 6.4 0.00 0.00 0.00 70 1018.5
20260507070340 9 242 1.6 4.8 0.00 0.00 0.00 70 1018.6
20260507065840 10 243 1.6 4.8 0.00 0.00 0.00 70 1018.7
20260507065340 10 243 1.6 8.0 0.00 0.00 0.00 69 1018.7
20260507064840 10 247 1.6 8.0 0.00 0.00 0.00 69 1018.8
20260507064339 10 239 1.6 6.4 0.00 0.00 0.00 69 1018.8
20260507063838 10 249 1.6 4.8 0.00 0.00 0.00 69 1018.9
20260507063339 10 246 1.6 4.8 0.00 0.00 0.00 69 1018.9
20260507062840 10 241 1.6 9.7 0.00 0.00 0.00 69 1018.9
20260507062337 10 239 1.6 9.7 0.00 0.00 0.00 68 1018.9
20260507061330 10 242 1.6 6.4 0.00 0.00 0.00 68 1019.1
20260507060824 10 232 1.6 8.0 0.00 0.00 0.00 68 1019.1
20260507060319 10 250 1.6 8.0 0.00 0.00 0.00 68 1019.1
20260507055812 10 225 1.6 6.4 0.00 0.00 0.00 68 1019.2
20260507055307 10 222 1.6 11.3 0.00 0.00 0.00 67 1019.2
20260507054800 10 241 1.6 11.3 0.00 0.00 0.00 67 1019.2
20260507054254 10 253 1.6 8.0 0.00 0.00 0.00 66 1019.1
20260507053748 10 218 1.6 8.0 0.00 0.00 0.00 66 1019.1
20260507053241 10 227 0.0 6.4 0.00 0.00 0.00 66 1019.1
20260507052737 10 227 0.0 6.4 0.00 0.00 0.00 66 1019.1
20260507052230 10 225 1.6 4.8 0.00 0.00 0.00 66 1019.3
20260507051724 10 224 1.6 4.8 0.00 0.00 0.00 66 1019.1
20260507051218 10 218 1.6 4.8 0.00 0.00 0.00 66 1019.1
20260507050712 10 249 0.0 4.8 0.00 0.00 0.00 67 1019.1
20260507050206 10 250 1.6 4.8 0.00 0.00 0.00 67 1019.1
20260507045702 10 256 1.6 4.8 0.00 0.00 0.00 67 1019.2
20260507045154 10 255 1.6 4.8 0.00 0.00 0.00 67 1019.3
20260507044143 9 265 0.0 6.4 0.00 0.00 0.00 68 1019.1
20260507043637 9 265 0.0 9.7 0.00 0.00 0.00 68 1019.1
20260507043132 9 300 0.0 3.2 0.00 0.03 0.00 68 1019.2
20260507042625 9 304 0.0 1.6 0.00 0.03 0.00 68 1019.2
20260507042119 9 304 0.0 3.2 0.00 0.03 0.00 68 1019.3
20260507041612 8 304 0.0 3.2 0.00 0.03 0.00 68 1019.3
20260507041108 8 306 0.0 1.6 0.00 0.03 0.00 69 1019.3
20260507040602 8 306 0.0 1.6 0.00 0.03 0.00 69 1019.3
20260507040054 8 306 0.0 1.6 0.00 0.05 0.00 69 1019.3
20260507035553 8 306 0.0 0.0 0.00 0.05 0.00 68 1019.3
20260507035053 8 306 0.0 0.0 0.00 0.05 0.00 68 1019.2
20260507034553 8 306 0.0 0.0 0.00 0.05 0.00 69 1019.1
20260507034053 8 306 0.0 0.0 0.00 0.08 0.00 69 1019.2
20260507033553 8 306 0.0 0.0 0.00 0.08 0.00 70 1019.1
20260507033053 8 306 0.0 0.0 0.00 0.08 0.00 70 1019.2
20260507032554 9 306 0.0 0.0 0.00 0.08 0.00 71 1019.4
20260507032054 9 306 0.0 0.0 0.00 0.08 0.00 71 1019.3
20260507031551 9 306 0.0 0.0 0.00 0.08 0.00 70 1019.3
20260507031052 9 306 0.0 0.0 0.00 0.08 0.00 69 1019.4
20260507030552 9 306 0.0 0.0 0.00 0.08 0.00 68 1019.4
20260507030052 9 306 0.0 0.0 0.00 0.08 0.00 67 1019.3
20260507025551 10 306 0.0 0.0 0.00 0.08 0.00 66 1019.3
20260507024551 10 306 0.0 0.0 0.00 0.08 0.00 64 1019.1
20260507024050 10 306 0.0 0.0 0.00 0.08 0.00 63 1018.9
20260507023546 10 306 0.0 0.0 0.00 0.08 0.00 64 1018.9
20260507023046 10 306 0.0 0.0 0.00 0.08 0.00 63 1018.9
20260507022541 10 306 0.0 0.0 0.00 0.08 0.00 63 1018.9
20260507022036 11 306 0.0 0.0 0.00 0.08 0.00 64 1018.9
20260507021530 11 306 0.0 0.0 0.00 0.08 0.00 62 1018.9
20260507021023 11 306 0.0 0.0 0.00 0.08 0.00 60 1018.9
20260507020517 11 306 0.0 0.0 0.00 0.08 0.00 59 1018.8
20260507020011 12 306 0.0 0.0 0.00 0.08 0.00 58 1018.7
20260507015504 12 306 0.0 0.0 0.00 0.08 0.00 56 1018.7
20260507014959 12 306 0.0 0.0 0.00 0.08 0.00 57 1018.7
20260507014453 12 306 0.0 0.0 0.00 0.08 0.00 53 1018.5
20260507013951 13 306 0.0 0.0 0.00 0.08 0.00 51 1018.5
20260507013451 13 306 0.0 0.0 0.00 0.08 0.00 49 1018.5
20260507012951 13 306 0.0 0.0 0.00 0.08 0.00 45 1018.4
20260507012451 13 306 0.0 0.0 0.00 0.08 0.00 43 1018.5
20260507011950 13 306 0.0 0.0 0.00 0.08 0.00 42 1018.4
20260507011451 13 306 0.0 0.0 0.00 0.08 0.00 42 1018.4
20260507010950 14 306 0.0 1.6 0.00 0.08 0.00 42 1018.4
20260507010451 14 306 0.0 1.6 0.00 0.08 0.00 42 1018.5
20260507004950 14 306 0.0 3.2 0.00 0.08 0.00 41 1018.5
20260507004450 14 306 0.0 3.2 0.00 0.08 0.00 40 1018.4
20260507003951 14 306 0.0 3.2 0.00 0.08 0.00 40 1018.5
20260507003451 15 306 1.6 4.8 0.00 0.08 0.00 40 1018.3
20260507002950 15 311 1.6 4.8 0.00 0.08 0.00 40 1018.3
20260507002451 15 297 1.6 4.8 0.00 0.08 0.00 40 1018.3
20260507001948 15 297 1.6 4.8 0.00 0.08 0.00 40 1018.4
20260507000949 15 296 1.6 4.8 0.00 0.08 0.00 41 1018.3
20260507000450 15 230 1.6 4.8 0.00 0.08 0.00 39 1018.3
20260506235949 15 308 1.6 8.0 0.00 0.08 0.00 40 1018.4
20260506235449 15 248 3.2 12.9 0.00 0.08 0.00 38 1018.4
20260506234953 15 296 1.6 12.9 0.00 0.08 0.00 39 1018.4
20260506234448 15 0 1.6 6.4 0.00 0.08 0.00 39 1018.4
20260506233945 15 5 1.6 6.4 0.00 0.08 0.00 39 1018.4
20260506233445 15 325 1.6 6.4 0.00 0.08 0.00 37 1018.5
20260506232944 15 321 1.6 6.4 0.00 0.08 0.00 39 1018.5
20260506232441 15 300 1.6 8.0 0.00 0.08 0.00 39 1018.5
20260506231939 15 202 1.6 8.0 0.00 0.08 0.00 37 1018.6
20260506230939 15 40 1.6 3.2 0.00 0.08 0.00 36 1018.6
20260506230436 15 296 1.6 4.8 0.00 0.08 0.00 37 1018.6
20260506225935 15 321 1.6 4.8 0.00 0.08 0.00 37 1018.7
20260506225434 15 327 1.6 6.4 0.00 0.08 0.00 38 1018.8
20260506224934 15 340 1.6 6.4 0.00 0.08 0.00 38 1018.6
20260506224429 15 298 1.6 4.8 0.00 0.08 0.00 40 1018.6
20260506223922 15 51 3.2 11.3 0.00 0.08 0.00 41 1018.6
20260506223416 15 298 4.8 14.5 0.00 0.08 0.00 38 1018.7
20260506222910 15 304 4.8 14.5 0.00 0.08 0.00 38 1018.7
20260506221859 15 318 1.6 6.4 0.00 0.08 0.00 40 1018.6
20260506221352 15 296 1.6 6.4 0.00 0.08 0.00 41 1018.6
20260506220847 16 69 3.2 11.3 0.00 0.08 0.00 37 1018.6
20260506220340 16 302 3.2 11.3 0.00 0.08 0.00 37 1018.7
20260506215835 16 351 1.6 11.3 0.00 0.08 0.00 37 1018.7
20260506215332 15 304 3.2 12.9 0.00 0.08 0.00 36 1018.7
20260506214822 16 301 4.8 12.9 0.00 0.08 0.00 36 1018.8
20260506214316 16 351 3.2 9.7 0.00 0.08 0.00 38 1018.8
20260506213811 16 313 3.2 14.5 0.00 0.08 0.00 36 1018.8
20260506213304 16 70 3.2 14.5 0.00 0.08 0.00 39 1018.9
20260506212758 16 278 1.6 6.4 0.00 0.08 0.00 38 1018.9
20260506212252 16 225 3.2 9.7 0.00 0.08 0.00 40 1019.0
20260506211239 16 5 4.8 16.1 0.00 0.08 0.00 37 1019.1
20260506210733 16 297 4.8 16.1 0.00 0.08 0.00 37 1019.2
20260506205722 16 268 4.8 17.7 0.00 0.08 0.00 41 1019.3
20260506205216 16 296 4.8 17.7 0.00 0.08 0.00 43 1019.4
20260506204204 16 345 3.2 11.3 0.00 0.08 0.00 37 1019.5
20260506203657 16 284 3.2 12.9 0.00 0.08 0.00 43 1019.4
20260506203152 16 309 4.8 12.9 0.00 0.08 0.00 37 1019.7
20260506202646 16 316 4.8 16.1 0.00 0.08 0.00 37 1019.9
20260506202140 16 321 3.2 16.1 0.00 0.08 0.00 40 1019.9
20260506201635 16 269 3.2 9.7 0.00 0.08 0.00 40 1020.0
20260506201127 16 304 3.2 8.0 0.00 0.08 0.00 41 1020.1
20260506200621 16 31 3.2 8.0 0.00 0.08 0.00 41 1020.2
20260506200116 16 277 3.2 6.4 0.00 0.08 0.00 44 1020.3
20260506195609 16 318 3.2 9.7 0.00 0.08 0.00 42 1020.3
20260506195104 16 269 3.2 14.5 0.00 0.08 0.00 38 1020.3
20260506194558 15 355 3.2 14.5 0.00 0.08 0.00 42 1020.2
20260506194053 15 296 3.2 9.7 0.00 0.08 0.00 45 1020.2
20260506193546 15 348 1.6 9.7 0.00 0.08 0.00 40 1020.2
20260506193041 15 326 3.2 11.3 0.00 0.08 0.00 45 1020.1
20260506192028 15 301 4.8 16.1 0.00 0.08 0.00 41 1020.1
20260506191522 15 284 3.2 16.1 0.00 0.08 0.00 41 1020.1
20260506191015 15 138 1.6 9.7 0.00 0.08 0.00 48 1020.1
20260506190005 15 192 3.2 9.7 0.00 0.08 0.00 41 1020.2
20260506185458 15 59 3.2 9.7 0.00 0.08 0.00 42 1020.2
20260506184952 15 326 4.8 19.3 0.00 0.08 0.00 41 1020.3
20260506184445 15 304 4.8 19.3 0.00 0.08 0.00 44 1020.4
20260506183939 15 306 4.8 14.5 0.00 0.08 0.00 43 1020.4
20260506183434 15 315 6.4 14.5 0.00 0.08 0.00 38 1020.4
20260506182422 15 312 4.8 16.1 0.00 0.08 0.00 45 1020.3
20260506181916 15 92 4.8 14.5 0.00 0.08 0.00 41 1020.4
20260506181410 15 283 3.2 12.9 0.00 0.08 0.00 44 1020.5
20260506180359 15 287 3.2 6.4 0.00 0.08 0.00 50 1020.6
20260506175345 15 279 3.2 9.7 0.00 0.08 0.00 45 1020.7
20260506174340 14 37 3.2 11.3 0.00 0.08 0.00 48 1020.7
20260506173838 14 16 3.2 11.3 0.00 0.08 0.00 39 1020.7
20260506173338 15 340 3.2 11.3 0.00 0.08 0.00 44 1020.7
20260506172836 14 281 1.6 11.3 0.00 0.08 0.00 42 1020.8
20260506172337 14 52 3.2 11.3 0.00 0.08 0.00 43 1020.9
20260506171834 13 49 3.2 6.4 0.00 0.08 0.00 40 1020.7
20260506171334 14 322 3.2 8.0 0.00 0.08 0.00 43 1020.9
20260506170834 14 273 3.2 14.5 0.00 0.08 0.00 45 1021.0